Regional Weather Roundup
Issued by NWS

Home | Current Version | Previous Version | Graphics & Text | Print | Product List | Glossary On
Versions: 1 2 3 4 5 6 7 8 9 10 11 12 13 14 15 16 17 18 19 20 21 22 23 24 25 26 27 28 29 30 31 32 33 34 35 36 37 38 39 40 41 42 43 44 45 46 47 48 49 50
000
ASUS43 KOAX 220610
RWRNE

WEATHER ROUNDUP FOR NEBRASKA
NATIONAL WEATHER SERVICE OMAHA NE
100 AM CDT FRI SEP 22 2017

NOTES: SATELLITE DATA IS BEING USED TO AUGMENT CLOUD COVER ABOVE
       12000 FEET.
       "FAIR" INDICATES FEW OR NO CLOUDS BELOW 12,000 FEET WITH NO
       SIGNIFICANT WEATHER AND/OR OBSTRUCTIONS TO VISIBILITY.


NEZ001>004-019>022-054>056-220700-
NEBRASKA PANHANDLE

CITY           SKY/WX    TMP DP  RH WIND       PRES   REMARKS
SCOTTSBLUFF    CLEAR     62  40  44 NE14      29.61F
6HR MIN TEMP:  56; 6HR MAX TEMP:  83;

ALLIANCE       CLEAR     56  44  64 NW7       29.63R
6HR MIN TEMP:  52; 6HR MAX TEMP:  80;

CHADRON        CLEAR     59  38  45 NE15      29.68S
6HR MIN TEMP:  59; 6HR MAX TEMP:  87;

GORDON         FAIR      59  45  59 N8G18     29.65F
6HR MIN TEMP:  57; 6HR MAX TEMP:  84;

KIMBALL        CLEAR     60  32  35 S10       29.66F
SIDNEY         CLEAR     58  32  37 S10       29.64F
6HR MIN TEMP:  57; 6HR MAX TEMP:  85;

$$

NEZ057>060-069>072-079>082-220700-
SOUTHWEST NEBRASKA

CITY           SKY/WX    TMP DP  RH WIND       PRES   REMARKS
NORTH PLATTE   CLEAR     77  51  40 SE15G23   29.65R
6HR MIN TEMP:  77; 6HR MAX TEMP:  91;

IMPERIAL       CLEAR     72  38  29 S12       29.65R
6HR MIN TEMP:  71; 6HR MAX TEMP:  91;

LEXINGTON      CLEAR     81  65  58 S20       29.69S
MCCOOK         LGT RAIN  81  64  56 S24G32    29.66S
6HR MIN TEMP:  79; 6HR MAX TEMP:  92; 6HR PCP: TRACE;

OGALLALA       CLEAR     70  38  31 S13G18    29.62F
$$

NEZ005>010-023>029-035>040-094-220700-
NORTH CENTRAL NEBRASKA

CITY           SKY/WX    TMP DP  RH WIND       PRES   REMARKS
VALENTINE      CLEAR     73  52  47 SE18      29.60F
6HR MIN TEMP:  69; 6HR MAX TEMP:  87;

AINSWORTH      CLEAR     72  63  73 SE15      29.64S
BROKEN BOW     CLEAR     75  58  55 S16       29.69S
6HR MIN TEMP:  69; 6HR MAX TEMP:  92;

O`NEILL        CLEAR     80  69  70 S18G25    29.69S
ORD            CLEAR     78  65  63 SE16G22   29.68R
6HR MIN TEMP:  78; 6HR MAX TEMP:  89;

THEDFORD       CLEAR     75  44  32 S14       29.65S
$$

NEZ041-046>049-061>064-073>077-083>087-220700-
SOUTH CENTRAL NEBRASKA

CITY           SKY/WX    TMP DP  RH WIND       PRES   REMARKS
GRAND ISLAND   CLEAR     81  70  69 S22G30    29.74S
6HR MIN TEMP:  81; 6HR MAX TEMP:  89;

AURORA         CLEAR     80  70  71 S14       29.77R
HASTINGS       CLEAR     82  67  60 S17G29    29.76R
6HR MIN TEMP:  82; 6HR MAX TEMP:  91;

HEBRON         MOCLDY    82  71  70 S16G23    29.79S
HOLDREGE       CLEAR     80  64  58 S20G26    29.72S
KEARNEY        CLEAR     81  67  62 S24       29.72S
YORK           PTCLDY    81  72  74 S16G23    29.78R
$$

NEZ011>018-030>034-042>045-220700-
NORTHEAST NEBRASKA

CITY           SKY/WX    TMP DP  RH WIND       PRES   REMARKS
NORFOLK        CLEAR     80  72  76 S21G28    29.74R
6HR MIN TEMP:  80; 6HR MAX TEMP:  86;

ALBION         CLEAR     80  71  74 S18G25    29.73S
BLAIR          PTCLDY    81  73  76 S17G24    29.81R
COLUMBUS       CLEAR     80  72  76 S16G22    29.76R
FREMONT        PTCLDY    80  71  73 S14       29.79S
TEKAMAH        CLEAR     80  72  76 S12       29.78R
6HR MIN TEMP:  80; 6HR MAX TEMP:  86;

WAYNE          CLEAR     80  77  91 S18G25    29.74S
$$

NEZ050>053-065>068-078-088>093-220700-
SOUTHEAST NEBRASKA

CITY           SKY/WX    TMP DP  RH WIND       PRES   REMARKS
LINCOLN        CLEAR     81  71  71 S17       29.78S
6HR MIN TEMP:  81; 6HR MAX TEMP:  89;

OMAHA EPPLEY   PTCLDY    81  72  74 S13       29.81R
6HR MIN TEMP:  81; 6HR MAX TEMP:  89;

BEATRICE       CLEAR     82  71  71 S16G22    29.81R
FALLS CITY     CLEAR     80  71  74 S12       29.85R
6HR MIN TEMP:  79; 6HR MAX TEMP:  88;

NEBRASKA CITY  CLEAR     79  75  86 S13G18    29.84S
PLATTSMOUTH    CLEAR     79  73  82 SE10G16   29.83R
$$

NEZ044-045-051>053-067-220700-
OMAHA AREA

CITY           SKY/WX    TMP DP  RH WIND       PRES   REMARKS
OMAHA EPPLEY   PTCLDY    81  72  74 S13       29.81R
6HR MIN TEMP:  81; 6HR MAX TEMP:  89;

BLAIR          PTCLDY    81  73  76 S17G24    29.81R
FREMONT        PTCLDY    80  71  73 S14       29.79S
MILLARD        CLEAR     83  74  74 S9G17     29.81R
OFFUTT AFB     CLEAR     79  72  79 SE14      29.81R
PLATTSMOUTH    CLEAR     79  73  82 SE10G16   29.83R
WAHOO          FAIR      80  71  74 SE12      29.79S
$$



USA.gov is the U.S. government's official web portal to all federal, state and local government web resources and services.